HB9BTL-13 Weather Reports


Display with metric or nautical units.
time (UTC)temp
F
wind
direction
speed
MPH
gust
MPH
rain 1hr
in
rain 24hr
in
rain mn
in
humidity
%
barometer
mb
20260502214325 65 0.0 0.0 0.00 0.00 0.00 68 1017.2
20260502212819 64 0.0 0.0 0.00 0.00 0.00 70 1017.2
20260502211315 65 0.0 0.0 0.00 0.00 0.00 68 1017.1
20260502205809 66 0.0 0.0 0.00 0.00 0.00 62 1017.1
20260502204304 66 0.0 0.0 0.00 0.00 0.00 63 1017.2
20260502202758 66 0.0 0.0 0.00 0.00 0.00 64 1017.1
20260502201253 67 0.0 0.0 0.00 0.00 0.00 62 1017.1
20260502195748 68 0.0 0.0 0.00 0.00 0.00 60 1017.1
20260502194242 68 0.0 0.0 0.00 0.00 0.00 59 1017.1
20260502192737 68 0.0 0.0 0.00 0.00 0.00 55 1016.9
20260502191231 67 0.0 0.0 0.00 0.00 0.00 57 1016.9
20260502185726 68 0.0 0.0 0.00 0.00 0.00 55 1016.7
20260502184220 69 0.0 0.0 0.00 0.00 0.00 54 1016.5
20260502182715 70 0.0 0.0 0.00 0.00 0.00 53 1016.6
20260502181209 70 0.0 0.0 0.00 0.00 0.00 54 1016.5
20260502164138 76 0.0 0.0 0.00 0.00 0.00 39 1016.6
20260502162632 76 0.0 0.0 0.00 0.00 0.00 39 1016.7
20260502161127 77 0.0 0.0 0.00 0.00 0.00 36 1017.0
20260502151105 77 0.0 0.0 0.00 0.00 0.00 37 1017.6
20260502122506 74 0.0 0.0 0.00 0.00 0.00 49 1020.0
20260502121000 73 0.0 0.0 0.00 0.00 0.00 50 1020.2
20260502115455 74 0.0 0.0 0.00 0.00 0.00 47 1020.4
20260502113950 72 0.0 0.0 0.00 0.00 0.00 52 1020.7
20260502112444 71 0.0 0.0 0.00 0.00 0.00 50 1021.0
20260502110939 70 0.0 0.0 0.00 0.00 0.00 55 1021.2
20260502105433 70 0.0 0.0 0.00 0.00 0.00 56 1021.5
20260502103928 70 0.0 0.0 0.00 0.00 0.00 56 1021.6
20260502102422 69 0.0 0.0 0.00 0.00 0.00 57 1021.8
20260502100917 68 0.0 0.0 0.00 0.00 0.00 58 1022.1
20260502090856 65 0.0 0.0 0.00 0.00 0.00 59 1023.1
20260502070813 57 0.0 0.0 0.00 0.00 0.00 66 1023.8
20260502065308 57 0.0 0.0 0.00 0.00 0.00 68 1023.9
20260502063802 56 0.0 0.0 0.00 0.00 0.00 69 1023.9
20260502062257 55 0.0 0.0 0.00 0.00 0.00 70 1023.9
20260502060751 55 0.0 0.0 0.00 0.00 0.00 69 1024.0
20260502055246 53 0.0 0.0 0.00 0.00 0.00 74 1024.0
20260502053740 53 0.0 0.0 0.00 0.00 0.00 75 1024.0
20260502052235 53 0.0 0.0 0.00 0.00 0.00 78 1023.9
20260502050730 52 0.0 0.0 0.00 0.00 0.00 78 1023.9
20260502045224 52 0.0 0.0 0.00 0.00 0.00 78 1023.8
20260502043719 52 0.0 0.0 0.00 0.00 0.00 78 1023.7
20260502042213 51 0.0 0.0 0.00 0.00 0.00 78 1023.7
20260502040708 52 0.0 0.0 0.00 0.00 0.00 74 1023.7
20260502035202 53 0.0 0.0 0.00 0.00 0.00 72 1023.7
20260502033657 51 0.0 0.0 0.00 0.00 0.00 78 1023.7
20260502032152 52 0.0 0.0 0.00 0.00 0.00 76 1023.7
20260502030647 53 0.0 0.0 0.00 0.00 0.00 72 1023.7
20260502025141 52 0.0 0.0 0.00 0.00 0.00 74 1023.6
20260502023636 53 0.0 0.0 0.00 0.00 0.00 74 1023.6
20260502022131 54 0.0 0.0 0.00 0.00 0.00 71 1023.6
20260502020625 53 0.0 0.0 0.00 0.00 0.00 71 1023.6
20260502015120 53 0.0 0.0 0.00 0.00 0.00 69 1023.6
20260502013614 53 0.0 0.0 0.00 0.00 0.00 72 1023.6
20260502012109 54 0.0 0.0 0.00 0.00 0.00 69 1023.6
20260502010603 55 0.0 0.0 0.00 0.00 0.00 65 1023.4
20260502005058 54 0.0 0.0 0.00 0.00 0.00 66 1023.5
20260502003553 54 0.0 0.0 0.00 0.00 0.00 66 1023.5
20260502002047 54 0.0 0.0 0.00 0.00 0.00 66 1023.5
20260502000542 54 0.0 0.0 0.00 0.00 0.00 66 1023.7
20260501235036 55 0.0 0.0 0.00 0.00 0.00 62 1023.7
20260501233531 56 0.0 0.0 0.00 0.00 0.00 59 1023.6
20260501232026 57 0.0 0.0 0.00 0.00 0.00 57 1023.6
20260501230521 56 0.0 0.0 0.00 0.00 0.00 57 1023.6
20260501225015 56 0.0 0.0 0.00 0.00 0.00 59 1023.6
20260501223510 57 0.0 0.0 0.00 0.00 0.00 57 1023.6
20260501222005 57 0.0 0.0 0.00 0.00 0.00 56 1023.5
20260501220459 57 0.0 0.0 0.00 0.00 0.00 57 1023.5
20260501214954 58 0.0 0.0 0.00 0.00 0.00 55 1023.3